EW8841 Weather Reports


time (UTC)temp
C
wind
direction
speed
KPH
gust
KPH
rain 1hr
cm
rain 24hr
cm
rain mn
cm
humidity
%
barometer
mb
20260506175516 24 0.0 0.0 0.00 0.00 0.00 50 1015.9
20260506174516 23 0.0 0.0 0.00 0.00 0.00 51 1015.9
20260506173516 23 0.0 0.0 0.00 0.00 0.00 53 1015.9
20260506172516 22 0.0 0.0 0.00 0.00 0.00 54 1016.0
20260506171516 22 0.0 0.0 0.00 0.00 0.00 57 1016.0
20260506170516 21 0.0 0.0 0.00 0.00 0.00 60 1016.0
20260506165516 20 0.0 0.0 0.00 0.00 0.00 63 1016.0
20260506164516 19 0.0 0.0 0.00 0.00 0.00 65 1016.0
20260506163516 18 0.0 0.0 0.00 0.00 0.00 67 1016.0
20260506162516 18 0.0 0.0 0.00 0.00 0.00 70 1016.1
20260506161516 17 0.0 0.0 0.00 0.00 0.00 75 1016.0
20260506160515 16 0.0 0.0 0.00 0.00 0.00 78 1016.0
20260506155516 15 0.0 0.0 0.00 0.00 0.00 80 1016.2
20260506154516 15 0.0 0.0 0.00 0.00 0.00 82 1016.2
20260506153516 14 0.0 0.0 0.00 0.00 0.00 85 1016.4
20260506152515 13 0.0 0.0 0.00 0.00 0.00 87 1016.5
20260506151516 12 0.0 0.0 0.00 0.00 0.00 89 1016.5
20260506150515 12 0.0 0.0 0.00 0.00 0.00 90 1016.5
20260506145536 12 0.0 0.0 0.00 0.00 0.00 90 1016.6
20260506144516 11 0.0 0.0 0.00 0.00 0.00 91 1016.5
20260506143515 11 0.0 0.0 0.00 0.00 0.00 91 1016.4
20260506142515 11 0.0 0.0 0.00 0.00 0.00 90 1016.2
20260506141518 10 0.0 0.0 0.00 0.00 0.00 90 1016.2
20260506140518 10 0.0 0.0 0.00 0.00 0.00 90 1016.0
20260506135518 10 0.0 0.0 0.00 0.00 0.00 90 1016.0
20260506134538 10 0.0 0.0 0.00 0.00 0.00 90 1016.0
20260506133517 10 0.0 0.0 0.00 0.00 0.00 89 1016.0
20260506132517 10 0.0 0.0 0.00 0.00 0.00 89 1015.9
20260506131558 10 0.0 0.0 0.00 0.00 0.00 89 1015.9
20260506130537 10 0.0 0.0 0.00 0.00 0.00 89 1015.7
20260506125558 10 0.0 0.0 0.00 0.00 0.00 89 1015.5
20260506124517 10 0.0 0.0 0.00 0.00 0.00 89 1015.5
20260506123517 10 0.0 0.0 0.00 0.00 0.00 89 1015.5
20260506122517 10 0.0 0.0 0.00 0.00 0.00 89 1015.5
20260506121518 10 0.0 0.0 0.00 0.00 0.00 89 1015.5
20260506120517 10 0.0 0.0 0.00 0.00 0.00 89 1015.5
20260506115538 10 0.0 0.0 0.00 0.00 0.00 88 1015.5
20260506114538 10 0.0 0.0 0.00 0.00 0.00 88 1015.5
20260506113517 10 0.0 0.0 0.00 0.00 0.00 88 1015.6
20260506112517 10 0.0 0.0 0.00 0.00 0.00 88 1015.5
20260506111517 10 0.0 0.0 0.00 0.00 0.00 88 1015.5
20260506110517 11 0.0 0.0 0.00 0.00 0.00 88 1015.5
20260506105517 11 0.0 0.0 0.00 0.00 0.00 87 1015.5
20260506104518 11 0.0 0.0 0.00 0.00 0.00 87 1015.5
20260506103517 11 0.0 0.0 0.00 0.00 0.00 87 1015.5
20260506102517 11 0.0 0.0 0.00 0.00 0.00 87 1015.5
20260506101518 11 0.0 0.0 0.00 0.00 0.00 87 1015.5
20260506100537 11 0.0 0.0 0.00 0.00 0.00 87 1015.4
20260506095518 11 0.0 0.0 0.00 0.00 0.00 87 1015.4
20260506094517 11 0.0 0.0 0.00 0.00 0.00 87 1015.4
20260506093517 11 0.0 0.0 0.00 0.00 0.00 87 1015.3
20260506092517 12 0.0 0.0 0.00 0.00 0.00 86 1015.5
20260506091518 12 0.0 0.0 0.00 0.00 0.00 86 1015.5
20260506090516 12 0.0 0.0 0.00 0.00 0.00 86 1015.5
20260506085517 12 0.0 0.0 0.00 0.00 0.00 85 1015.6
20260506084516 12 0.0 0.0 0.00 0.00 0.00 85 1015.6
20260506083516 12 0.0 0.0 0.00 0.00 0.00 84 1015.6
20260506082517 13 0.0 0.0 0.00 0.00 0.00 84 1015.7
20260506081517 13 0.0 0.0 0.00 0.00 0.00 84 1015.7
20260506080517 13 0.0 0.0 0.00 0.00 0.00 84 1015.7
20260506073517 13 0.0 0.0 0.00 0.00 0.00 84 1015.6
20260506072517 13 0.0 0.0 0.00 0.00 0.00 83 1015.5
20260506071537 13 0.0 0.0 0.00 0.00 0.00 83 1015.5
20260506070517 13 0.0 0.0 0.00 0.00 0.00 82 1015.4
20260506062517 14 0.0 0.0 0.00 0.00 0.00 82 1015.1
20260506061518 14 0.0 0.0 0.00 0.00 0.00 81 1015.1
20260506060517 14 0.0 0.0 0.00 0.00 0.00 81 1015.0
20260506050517 15 0.0 0.0 0.00 0.00 0.00 80 1014.8
20260506044557 15 0.0 0.0 0.00 0.00 0.00 80 1014.6
20260506043517 15 0.0 0.0 0.00 0.00 0.00 80 1014.4
20260506042518 15 0.0 0.0 0.00 0.00 0.00 81 1014.3
20260506041516 15 0.0 0.0 0.00 0.00 0.00 80 1014.3
20260506040517 15 0.0 0.0 0.00 0.00 0.00 80 1013.9
20260506035517 15 0.0 0.0 0.00 0.00 0.00 80 1013.9
20260506034516 15 0.0 0.0 0.00 0.00 0.00 79 1013.9
20260506033516 15 0.0 0.0 0.00 0.00 0.00 79 1013.7
20260506032517 15 0.0 0.0 0.00 0.00 0.00 78 1013.4
20260506031516 15 0.0 0.0 0.00 0.00 0.00 78 1013.4
20260506030518 15 0.0 0.0 0.00 0.00 0.00 78 1013.1
20260506025516 15 0.0 0.0 0.00 0.00 0.00 77 1012.9
20260506024517 15 0.0 0.0 0.00 0.00 0.00 77 1012.9
20260506023516 15 0.0 0.0 0.00 0.00 0.00 77 1012.9
20260506022516 15 0.0 0.0 0.00 0.00 0.00 76 1012.7
20260506021517 16 0.0 0.0 0.00 0.00 0.00 75 1012.8
20260506020537 16 0.0 0.0 0.00 0.00 0.00 74 1012.7
20260506015516 16 0.0 0.0 0.00 0.00 0.00 74 1012.7
20260506014516 16 0.0 0.0 0.00 0.00 0.00 73 1012.7
20260506013518 16 0.0 0.0 0.00 0.00 0.00 71 1012.5
20260506012516 16 0.0 0.0 0.00 0.00 0.00 69 1012.4
20260506011517 17 0.0 0.0 0.00 0.00 0.00 67 1012.4
20260506010516 17 0.0 0.0 0.00 0.00 0.00 64 1012.5
20260506005516 18 0.0 0.0 0.00 0.00 0.00 63 1012.5
20260506004516 18 0.0 0.0 0.00 0.00 0.00 63 1012.5
20260506003517 18 0.0 0.0 0.00 0.00 0.00 63 1012.3
20260506002516 18 0.0 0.0 0.00 0.00 0.00 61 1012.3
20260506001516 18 0.0 0.0 0.00 0.00 0.00 60 1012.3
20260506000537 19 0.0 0.0 0.00 0.00 0.00 60 1012.3
20260505235536 19 0.0 0.0 0.00 0.00 0.00 61 1012.3
20260505234516 20 0.0 0.0 0.00 0.00 0.00 61 1012.4
20260505233516 20 0.0 0.0 0.00 0.00 0.00 60 1012.3
20260505232516 20 0.0 0.0 0.00 0.00 0.00 59 1012.3
20260505231518 21 0.0 0.0 0.00 0.00 0.00 58 1012.3
20260505230516 21 0.0 0.0 0.00 0.00 0.00 56 1012.4
20260505225516 21 0.0 0.0 0.00 0.00 0.00 56 1012.4
20260505224516 21 0.0 0.0 0.00 0.00 0.00 57 1012.4
20260505223516 21 0.0 0.0 0.00 0.00 0.00 55 1012.5
20260505222517 21 0.0 0.0 0.00 0.00 0.00 54 1012.8
20260505221516 21 0.0 0.0 0.00 0.00 0.00 54 1012.8
20260505220515 20 0.0 0.0 0.00 0.00 0.00 56 1012.8
20260505215516 20 0.0 0.0 0.00 0.00 0.00 57 1013.0
20260505214516 20 0.0 0.0 0.00 0.00 0.00 57 1013.0
20260505213516 20 0.0 0.0 0.00 0.00 0.00 57 1013.3
20260505212516 20 0.0 0.0 0.00 0.00 0.00 57 1013.4
20260505211516 20 0.0 0.0 0.00 0.00 0.00 57 1013.4
20260505210515 20 0.0 0.0 0.00 0.00 0.00 56 1013.3
20260505205515 20 0.0 0.0 0.00 0.00 0.00 56 1013.4
20260505204515 20 0.0 0.0 0.00 0.00 0.00 53 1013.4
20260505203519 20 0.0 0.0 0.00 0.00 0.00 55 1013.4
20260505202517 20 0.0 0.0 0.00 0.00 0.00 56 1013.4
20260505201518 20 0.0 0.0 0.00 0.00 0.00 55 1013.4
20260505200517 20 0.0 0.0 0.00 0.00 0.00 53 1013.4
20260505195517 20 0.0 0.0 0.00 0.00 0.00 54 1013.4
20260505194538 20 0.0 0.0 0.00 0.00 0.00 52 1013.4
20260505193517 21 0.0 0.0 0.00 0.00 0.00 51 1013.3
20260505192539 21 0.0 0.0 0.00 0.00 0.00 49 1013.1
20260505191517 21 0.0 0.0 0.00 0.00 0.00 48 1013.1
20260505190539 21 0.0 0.0 0.00 0.00 0.00 50 1013.2
20260505185517 21 0.0 0.0 0.00 0.00 0.00 49 1012.9
20260505184518 21 0.0 0.0 0.00 0.00 0.00 50 1012.9
20260505183517 21 0.0 0.0 0.00 0.00 0.00 51 1012.9
20260505182517 21 0.0 0.0 0.00 0.00 0.00 51 1013.0
20260505181517 21 0.0 0.0 0.00 0.00 0.00 51 1013.0
20260505180517 20 0.0 0.0 0.00 0.00 0.00 54 1012.9